• Join FlightAware (Why Join?)
  • Login
  • US Flag GB Flag 
09:23 EDT


 

Airport Tracker/Info


-or-


 

Live Flight TrackerFlight Track Log ✈ AAL963 ✈ 22-Apr-2013 ✈ KDFW - SBGR / GRU

Flight Track Log - Related Links

Times and Time Zones

All times are in EDT time to prevent confusion due to time zone crossing. See the AAL963 flight status page for this flight to view local times or setup timezone preferences in your user account.

Time Position Orientation Groundspeed Altitude Reporting Facility
EDT Latitude Longitude Course Direction KTS MPH feet Rate Location/Type
21:11 32.8430 -97.0520 181° South 193 222 2,500  Level FlightAware
21:12 32.8350 -97.0520 180° South 206 237 2,500 1,200 Level FlightAware
21:12 32.8050 -97.0520 180° South 226 260 3,300 1,860 Climbing FlightAware
21:13 32.7720 -97.0530 181° South 230 265 4,400 2,160 Climbing FlightAware
21:13 32.7450 -97.0530 180° South 234 269 5,300 2,040 Climbing FlightAware
21:13 32.7120 -97.0540 181° South 243 280 6,300 1,620 Climbing FlightAware
21:14 32.6840 -97.0540 180° South 256 295 6,800 1,440 Climbing FlightAware
21:14 32.6530 -97.0550 182° South 265 305 7,500 1,560 Climbing FlightAware
21:15 32.6330 -97.0550 180° South 268 308 8,000 1,680 Climbing FlightAware
21:15 32.5980 -97.0480 170° South 284 327 8,800 2,040 Climbing FlightAware
21:16 32.5630 -97.0230 149° Southeast 292 336 9,900 1,620 Climbing FlightAware
21:16 32.5160 -96.9870 147° Southeast 317 365 10,700 1,080 Climbing FlightAware
21:17 32.4550 -96.9410 148° Southeast 358 412 11,500 1,380 Climbing FlightAware
21:18 32.3960 -96.8990 149° Southeast 374 430 12,700 1,500 Climbing FlightAware
21:18 32.3290 -96.8490 148° Southeast 407 468 13,700 1,740 Climbing FlightAware
21:19 32.2630 -96.8080 152° Southeast 411 473 15,200 2,220 Climbing FlightAware
21:20 32.1900 -96.7790 161° South 413 475 16,700 2,100 Climbing FlightAware
21:20 32.1283 -96.7557 162° South 427 491 17,700 2,040 Climbing FlightAware ADS-B
21:21 32.0704 -96.7341 162° South 433 498 18,800 2,100 Climbing FlightAware ADS-B
21:21 31.9994 -96.7072 162° South 437 503 20,100 2,040 Climbing FlightAware ADS-B
21:22 31.9409 -96.6850 162° South 445 512 21,100 1,860 Climbing FlightAware ADS-B
21:22 31.8673 -96.6570 162° South 452 520 22,200 1,800 Climbing FlightAware ADS-B
21:23 31.8509 -96.6504 161° South 454 522 22,500 1,920 Climbing FlightAware ADS-B
21:23 31.8068 -96.6321 161° South 457 526 23,200 1,980 Climbing FlightAware ADS-B
21:23 31.7905 -96.6252 160° South 456 525 23,500 1,860 Climbing FlightAware ADS-B
21:24 31.7428 -96.6053 160° South 461 531 24,200 1,740 Climbing FlightAware ADS-B
21:24 31.7160 -96.5942 161° South 461 531 24,600 1,800 Climbing FlightAware ADS-B
21:24 31.6820 -96.5803 161° South 464 534 25,100 1,500 Climbing FlightAware ADS-B
21:24 31.6435 -96.5646 161° South 466 536 25,500 1,380 Climbing FlightAware ADS-B
21:25 31.6205 -96.5552 161° South 469 540 25,800 1,380 Climbing FlightAware ADS-B
21:25 31.5813 -96.5393 161° South 473 544 26,200 1,320 Climbing FlightAware ADS-B
21:25 31.5553 -96.5287 161° South 475 547 26,500 1,380 Climbing FlightAware ADS-B
21:25 31.5186 -96.5138 161° South 478 550 26,900 1,380 Climbing FlightAware ADS-B
21:26 31.4925 -96.5035 161° South 478 550 27,200 1,680 Climbing FlightAware ADS-B
21:26 31.4516 -96.4882 162° South 478 550 27,800 1,560 Climbing FlightAware ADS-B
21:26 31.4291 -96.4800 163° South 479 551 28,000 1,140 Climbing FlightAware ADS-B
21:26 31.3862 -96.4642 163° South 482 555 28,400 1,140 Climbing FlightAware ADS-B
21:27 31.3649 -96.4564 163° South 483 556 28,600 1,380 Climbing FlightAware ADS-B
21:27 31.3211 -96.4402 162° South 485 558 29,100 1,200 Climbing FlightAware ADS-B
21:27 31.3005 -96.4325 162° South 486 559 29,200 1,200 Climbing FlightAware ADS-B
21:27 31.2560 -96.4159 162° South 489 563 29,700 1,320 Climbing FlightAware ADS-B
21:28 31.2338 -96.4076 162° South 487 560 29,900 1,020 Climbing FlightAware ADS-B
21:28 31.2209 -96.4027 162° South 488 562 30,000 1,200 Climbing FlightAware ADS-B
21:28 31.2111 -96.3984 159° South 491 565 30,100 1,980 Climbing FlightAware ADS-B
21:28 31.2069 -96.3963 157° South 492 566 30,200 1,200 Climbing FlightAware ADS-B
21:28 31.1916 -96.3874 154° Southeast 496 571 30,300 660 Climbing FlightAware ADS-B
21:28 31.1738 -96.3744 148° Southeast 500 575 30,400 1,200 Climbing FlightAware ADS-B
21:28 31.1709 -96.3721 146° Southeast 501 577 30,500 1,500 Climbing FlightAware ADS-B
21:28 31.1585 -96.3607 142° Southeast 504 580 30,600 720 Climbing FlightAware ADS-B
21:28 31.1576 -96.3598 139° Southeast 504 580 30,600 720 Level FlightAware ADS-B
21:28 31.1445 -96.3453 137° Southeast 508 585 30,700 1,320 Climbing FlightAware ADS-B
21:28 31.1411 -96.3411 133° Southeast 509 586 30,800 1,500 Climbing FlightAware ADS-B
21:28 31.1323 -96.3289 130° Southeast 512 589 30,900 960 Climbing FlightAware ADS-B
21:29 31.0982 -96.2742 126° Southeast 516 594 31,300 780 Climbing FlightAware ADS-B
21:29 31.0904 -96.2616 126° Southeast 516 594 31,300 660 Level FlightAware ADS-B
21:29 31.0732 -96.2349 127° Southeast 518 596 31,500 720 Climbing FlightAware ADS-B
21:29 31.0534 -96.2072 130° Southeast 519 597 31,600 720 Climbing FlightAware ADS-B
21:30 31.0252 -96.1704 132° Southeast 520 598 31,900 960 Climbing FlightAware ADS-B
21:30 31.0045 -96.1447 133° Southeast 519 597 32,100 1,200 Climbing FlightAware ADS-B
21:30 30.9752 -96.1093 134° Southeast 518 596 32,500 960 Climbing FlightAware ADS-B
21:30 30.9540 -96.0841 134° Southeast 521 600 32,600 780 Climbing FlightAware ADS-B
21:31 30.9238 -96.0486 135° Southeast 523 602 32,900 960 Climbing FlightAware ADS-B
21:31 30.9016 -96.0227 135° Southeast 523 602 33,100 960 Climbing FlightAware ADS-B
21:31 30.8722 -95.9886 135° Southeast 524 603 33,400 720 Climbing FlightAware ADS-B
21:31 30.8495 -95.9623 135° Southeast 526 605 33,500 360 Climbing FlightAware ADS-B
21:32 30.8198 -95.9282 135° Southeast 530 610 33,600 540 Climbing FlightAware ADS-B
21:32 30.7939 -95.8985 135° Southeast 533 613 33,800 540 Climbing FlightAware ADS-B
21:32 30.7649 -95.8652 135° Southeast 535 616 33,900 600 Climbing FlightAware ADS-B
21:32 30.7407 -95.8375 135° Southeast 536 617 34,100 960 Climbing FlightAware ADS-B
21:33 30.7113 -95.8039 135° Southeast 537 618 34,400 960 Climbing FlightAware ADS-B
21:33 30.6867 -95.7758 136° Southeast 538 619 34,600 720 Climbing FlightAware ADS-B
21:33 30.6555 -95.7401 135° Southeast 538 619 34,800 720 Climbing FlightAware ADS-B
21:33 30.6319 -95.7133 136° Southeast 538 619 35,000 360 Climbing FlightAware ADS-B
21:34 30.6019 -95.6791 136° Southeast 539 620 35,000  Level FlightAware ADS-B
21:34 30.5763 -95.6499 136° Southeast 539 620 35,000  Level FlightAware ADS-B
21:34 30.5480 -95.6177 136° Southeast 538 619 35,000  Level FlightAware ADS-B
21:34 30.5225 -95.5887 136° Southeast 537 618 35,000  Level FlightAware ADS-B
21:35 30.4940 -95.5562 135° Southeast 537 618 35,000  Level FlightAware ADS-B
21:35 30.4693 -95.5282 136° Southeast 536 617 35,000  Level FlightAware ADS-B
21:35 30.4316 -95.4854 136° Southeast 536 617 35,000  Level FlightAware ADS-B
21:36 30.4112 -95.4623 136° Southeast 536 617 35,000  Level FlightAware ADS-B
21:36 30.3776 -95.4241 136° Southeast 536 617 35,000  Level FlightAware ADS-B
21:36 30.3578 -95.4017 136° Southeast 536 617 35,000  Level FlightAware ADS-B
21:36 30.3241 -95.3635 136° Southeast 536 617 35,000  Level FlightAware ADS-B
21:37 30.3037 -95.3405 136° Southeast 536 617 35,000  Level FlightAware ADS-B
21:37 30.2707 -95.3033 136° Southeast 536 617 35,000  Level FlightAware ADS-B
21:37 30.2493 -95.2791 136° Southeast 536 617 35,000  Level FlightAware ADS-B
21:37 30.2175 -95.2432 136° Southeast 537 618 35,000  Level FlightAware ADS-B
21:38 30.1953 -95.2182 136° Southeast 537 618 35,000  Level FlightAware ADS-B
21:38 30.1639 -95.1827 136° Southeast 537 618 35,000  Level FlightAware ADS-B
21:38 30.1393 -95.1551 136° Southeast 537 618 35,000  Level FlightAware ADS-B
21:38 30.1092 -95.1212 136° Southeast 538 619 35,000  Level FlightAware ADS-B
21:39 30.0844 -95.0933 136° Southeast 539 620 35,000  Level FlightAware ADS-B
21:39 30.0545 -95.0599 136° Southeast 540 621 35,000  Level FlightAware ADS-B
21:39 30.0291 -95.0314 136° Southeast 540 621 35,000  Level FlightAware ADS-B
21:39 30.0008 -94.9996 136° Southeast 540 621 35,000  Level FlightAware ADS-B
21:40 29.9700 -94.9651 136° Southeast 540 621 35,000  Level FlightAware ADS-B
21:40 29.9467 -94.9390 136° Southeast 540 621 35,000  Level FlightAware ADS-B
21:40 29.9151 -94.9036 136° Southeast 541 623 35,000  Level FlightAware ADS-B
21:40 29.8921 -94.8780 136° Southeast 542 624 35,000  Level FlightAware ADS-B
21:41 29.8597 -94.8418 136° Southeast 542 624 35,000  Level FlightAware ADS-B
21:41 29.8376 -94.8170 136° Southeast 543 625 35,000  Level FlightAware ADS-B
21:41 29.8042 -94.7798 136° Southeast 544 626 35,000  Level FlightAware ADS-B
21:41 29.7817 -94.7547 136° Southeast 544 626 35,000  Level FlightAware ADS-B
21:42 29.7486 -94.7178 136° Southeast 544 626 35,000  Level FlightAware ADS-B
21:42 29.7262 -94.6929 136° Southeast 545 627 35,000  Level FlightAware ADS-B
21:42 29.6928 -94.6559 136° Southeast 545 627 35,000  Level FlightAware ADS-B
21:42 29.6707 -94.6314 136° Southeast 545 627 35,000  Level FlightAware ADS-B
21:43 29.6382 -94.5954 136° Southeast 545 627 35,000  Level FlightAware ADS-B
21:43 29.6153 -94.5700 136° Southeast 545 627 35,000  Level FlightAware ADS-B
21:43 29.5832 -94.5345 136° Southeast 545 627 35,000  Level FlightAware ADS-B
21:43 29.5608 -94.5098 136° Southeast 545 627 35,000  Level FlightAware ADS-B
21:44 29.5224 -94.4672 136° Southeast 545 627 35,000  Level FlightAware ADS-B
21:44 29.5042 -94.4472 136° Southeast 545 627 35,000  Level FlightAware ADS-B
21:44 29.4669 -94.4059 136° Southeast 544 626 35,000  Level FlightAware ADS-B
21:44 29.4487 -94.3859 136° Southeast 544 626 35,000  Level FlightAware ADS-B
21:45 29.3940 -94.3255 136° Southeast 544 626 35,000  Level FlightAware ADS-B
21:45 29.3371 -94.2627 136° Southeast 544 626 35,000  Level FlightAware ADS-B
21:46 29.2822 -94.2023 136° Southeast 543 625 35,000  Level FlightAware ADS-B
21:46 29.2272 -94.1416 136° Southeast 544 626 35,000  Level FlightAware ADS-B
21:47 29.1727 -94.0817 136° Southeast 546 628 35,000  Level FlightAware ADS-B
21:48 29.0970 -93.9920 134° Southeast 543 625 35,000  Level FlightAware
21:49 29.0360 -93.9230 135° Southeast 543 625 35,000  Level FlightAware
21:49 28.9760 -93.8540 135° Southeast 543 625 35,000  Level FlightAware
21:50 28.9150 -93.7850 135° Southeast 543 625 35,000  Level FlightAware
21:51 28.8400 -93.6990 135° Southeast 543 625 35,000  Level FlightAware
21:51 28.7790 -93.6300 135° Southeast 543 625 35,000  Level FlightAware
21:52 28.7190 -93.5610 135° Southeast 543 625 35,000  Level FlightAware
21:53 28.6590 -93.4920 135° Southeast 543 625 35,000  Level FlightAware
21:53 28.5980 -93.4230 135° Southeast 543 625 35,000  Level FlightAware
21:54 28.5230 -93.3370 135° Southeast 543 625 35,000  Level FlightAware
21:55 28.4620 -93.2680 135° Southeast 543 625 35,000  Level FlightAware
21:56 28.4020 -93.2000 135° Southeast 543 625 35,000  Level FlightAware
21:56 28.3410 -93.1310 135° Southeast 543 625 35,000  Level FlightAware
22:01 27.5811 -92.3744 144° Southeast 562 647 35,000  Level Houston Center
22:02 27.5321 -92.3217 138° Southeast 564 649 35,000  Level FlightAware ADS-B
22:02 27.4661 -92.2536 137° Southeast 565 650 35,000  Level Houston Center
22:03 27.3533 -92.1344 137° Southeast 559 643 35,000  Level Houston Center
22:04 27.2378 -92.0172 138° Southeast 559 643 35,000  Level Houston Center
22:05 27.0933 -91.8831 140° Southeast 561 646 35,000  Level Houston Center
22:07 27.0495 -91.8394 144° Southeast  Level FlightAware Approximate
22:07 26.9762 -91.7879 144° Southeast  Level FlightAware Approximate
22:14 26.2286 -91.1876 145° Southeast  Level FlightAware Approximate
22:15 26.1212 -91.1030 145° Southeast  Level FlightAware Approximate
22:16 26.0137 -91.0187 145° Southeast  Level FlightAware Approximate
22:17 25.9062 -90.9345 145° Southeast  Level FlightAware Approximate
22:18 25.7987 -90.8504 145° Southeast  Level FlightAware Approximate
22:19 25.6911 -90.7665 145° Southeast  Level FlightAware Approximate
22:20 25.5834 -90.6827 145° Southeast  Level FlightAware Approximate
22:21 25.4757 -90.5992 145° Southeast  Level FlightAware Approximate
22:22 25.3680 -90.5157 145° Southeast  Level FlightAware Approximate
22:23 25.2602 -90.4324 145° Southeast  Level FlightAware Approximate
22:24 25.1524 -90.3492 145° Southeast  Level FlightAware Approximate
22:25 25.0445 -90.2662 145° Southeast  Level FlightAware Approximate
22:26 24.9366 -90.1834 145° Southeast  Level FlightAware Approximate
22:27 24.8286 -90.1006 145° Southeast  Level FlightAware Approximate
22:28 24.7186 -90.0165 145° Southeast  Level FlightAware Approximate
22:29 24.6085 -89.9326 145° Southeast  Level FlightAware Approximate
22:30 24.4985 -89.8485 138° Southeast  Level FlightAware Approximate
22:31 24.3890 -89.7642 146° Southeast  Level FlightAware Approximate
22:32 24.2776 -89.6826 146° Southeast  Level FlightAware Approximate
22:33 24.1661 -89.6012 146° Southeast  Level FlightAware Approximate
22:34 24.0546 -89.5200 146° Southeast  Level FlightAware Approximate
22:35 23.9445 -89.4364 145° Southeast  Level FlightAware Approximate
22:36 23.8344 -89.3529 145° Southeast  Level FlightAware Approximate
22:37 23.7243 -89.2696 145° Southeast  Level FlightAware Approximate
22:38 23.6142 -89.1864 145° Southeast  Level FlightAware Approximate
22:39 23.5040 -89.1033 145° Southeast  Level FlightAware Approximate
22:40 23.3938 -89.0203 145° Southeast  Level FlightAware Approximate
22:41 23.2835 -88.9375 145° Southeast  Level FlightAware Approximate
22:42 23.1732 -88.8549 145° Southeast  Level FlightAware Approximate
22:43 23.0634 -88.7714 145° Southeast  Level FlightAware Approximate
22:44 22.9537 -88.6880 145° Southeast  Level FlightAware Approximate
22:45 22.8439 -88.6048 145° Southeast  Level FlightAware Approximate
22:46 22.7340 -88.5216 145° Southeast  Level FlightAware Approximate
22:47 22.6302 -88.4304 137° Southeast  Level FlightAware Approximate
22:48 22.5316 -88.3322 137° Southeast  Level FlightAware Approximate
22:49 22.4329 -88.2342 137° Southeast  Level FlightAware Approximate
22:50 22.3342 -88.1363 137° Southeast  Level FlightAware Approximate
22:51 22.2354 -88.0386 138° Southeast  Level FlightAware Approximate
22:52 22.1365 -87.9410 138° Southeast  Level FlightAware Approximate
22:53 22.0376 -87.8435 138° Southeast  Level FlightAware Approximate
22:54 21.9386 -87.7462 138° Southeast  Level FlightAware Approximate
22:55 21.8396 -87.6490 138° Southeast  Level FlightAware Approximate
22:56 21.7405 -87.5519 138° Southeast  Level FlightAware Approximate
22:57 21.6414 -87.4550 138° Southeast  Level FlightAware Approximate
22:58 21.5422 -87.3582 138° Southeast  Level FlightAware Approximate
22:59 21.4428 -87.2617 138° Southeast  Level FlightAware Approximate
23:00 21.3434 -87.1653 138° Southeast  Level FlightAware Approximate
23:01 21.2439 -87.0691 138° Southeast  Level FlightAware Approximate
23:02 21.1443 -86.9730 138° Southeast  Level FlightAware Approximate
23:03 21.0447 -86.8770 138° Southeast  Level FlightAware Approximate
23:04 20.9455 -86.7806 138° Southeast  Level FlightAware Approximate
23:05 20.8464 -86.6842 138° Southeast  Level FlightAware Approximate
23:06 20.7473 -86.5878 138° Southeast  Level FlightAware Approximate
23:07 20.6481 -86.4916 138° Southeast  Level FlightAware Approximate
23:08 20.5488 -86.3955 138° Southeast  Level FlightAware Approximate
23:09 20.4495 -86.2996 138° Southeast  Level FlightAware Approximate
23:10 20.3502 -86.2038 138° Southeast  Level FlightAware Approximate
23:11 20.2507 -86.1080 138° Southeast  Level FlightAware Approximate
23:12 20.1513 -86.0125 138° Southeast  Level FlightAware Approximate
23:13 20.0518 -85.9170 138° Southeast  Level FlightAware Approximate
23:14 19.9519 -85.8220 139° Southeast  Level FlightAware Approximate
23:15 19.8510 -85.7283 139° Southeast  Level FlightAware Approximate
23:16 19.7501 -85.6347 139° Southeast  Level FlightAware Approximate
23:17 19.6491 -85.5413 139° Southeast  Level FlightAware Approximate
23:18 19.5481 -85.4479 139° Southeast  Level FlightAware Approximate
23:19 19.4470 -85.3547 139° Southeast  Level FlightAware Approximate
23:20 19.3458 -85.2616 139° Southeast  Level FlightAware Approximate
23:21 19.2447 -85.1686 139° Southeast  Level FlightAware Approximate
23:22 19.1434 -85.0758 139° Southeast  Level FlightAware Approximate
23:23 19.0422 -84.9830 139° Southeast  Level FlightAware Approximate
23:24 18.9408 -84.8904 139° Southeast  Level FlightAware Approximate
23:25 18.8395 -84.7978 139° Southeast  Level FlightAware Approximate
23:26 18.7381 -84.7054 139° Southeast  Level FlightAware Approximate
23:27 18.6366 -84.6131 139° Southeast  Level FlightAware Approximate
23:28 18.5351 -84.5209 139° Southeast  Level FlightAware Approximate
23:29 18.4335 -84.4288 139° Southeast  Level FlightAware Approximate
23:30 18.3318 -84.3369 139° Southeast  Level FlightAware Approximate
23:31 18.2300 -84.2453 139° Southeast  Level FlightAware Approximate
23:32 18.1282 -84.1537 139° Southeast  Level FlightAware Approximate
23:33 18.0263 -84.0623 140° Southeast  Level FlightAware Approximate
23:34 17.9243 -83.9709 140° Southeast  Level FlightAware Approximate
23:35 17.8223 -83.8797 140° Southeast  Level FlightAware Approximate
23:36 17.7203 -83.7886 140° Southeast  Level FlightAware Approximate
23:37 17.6182 -83.6976 140° Southeast  Level FlightAware Approximate
23:38 17.5161 -83.6067 140° Southeast  Level FlightAware Approximate
23:39 17.4139 -83.5158 140° Southeast  Level FlightAware Approximate
23:40 17.3118 -83.4251 140° Southeast  Level FlightAware Approximate
23:41 17.2095 -83.3345 140° Southeast  Level FlightAware Approximate
23:42 17.1072 -83.2440 140° Southeast  Level FlightAware Approximate
23:43 17.0049 -83.1536 140° Southeast  Level FlightAware Approximate
23:44 16.9025 -83.0633 140° Southeast  Level FlightAware Approximate
23:45 16.8001 -82.9731 140° Southeast  Level FlightAware Approximate
23:46 16.6977 -82.8829 140° Southeast  Level FlightAware Approximate
23:47 16.5952 -82.7929 140° Southeast  Level FlightAware Approximate
23:48 16.4927 -82.7030 140° Southeast  Level FlightAware Approximate
23:49 16.3902 -82.6132 140° Southeast  Level FlightAware Approximate
23:50 16.2876 -82.5234 140° Southeast  Level FlightAware Approximate
23:51 16.1850 -82.4338 140° Southeast  Level FlightAware Approximate
23:52 16.0823 -82.3442 140° Southeast  Level FlightAware Approximate
23:53 15.9796 -82.2548 140° Southeast  Level FlightAware Approximate
23:54 15.8770 -82.1652 140° Southeast  Level FlightAware Approximate
23:55 15.7746 -82.0754 140° Southeast  Level FlightAware Approximate
23:56 15.6722 -81.9857 140° Southeast  Level FlightAware Approximate
23:57 15.5698 -81.8961 140° Southeast  Level FlightAware Approximate
23:58 15.4673 -81.8066 140° Southeast  Level FlightAware Approximate
23:59 15.3648 -81.7172 140° Southeast  Level FlightAware Approximate
00:00 15.2622 -81.6279 140° Southeast  Level FlightAware Approximate
00:01 15.1596 -81.5386 140° Southeast  Level FlightAware Approximate
00:02 15.0570 -81.4495 140° Southeast  Level FlightAware Approximate
00:03 14.9542 -81.3606 140° Southeast  Level FlightAware Approximate
00:04 14.8511 -81.2721 140° Southeast  Level FlightAware Approximate
00:05 14.7480 -81.1837 140° Southeast  Level FlightAware Approximate
00:06 14.6448 -81.0954 140° Southeast  Level FlightAware Approximate
00:07 14.5417 -81.0071 140° Southeast  Level FlightAware Approximate
00:08 14.4384 -80.9190 140° Southeast  Level FlightAware Approximate
00:09 14.3352 -80.8309 140° Southeast  Level FlightAware Approximate
00:10 14.2319 -80.7429 140° Southeast  Level FlightAware Approximate
00:11 14.1286 -80.6550 140° Southeast  Level FlightAware Approximate
00:12 14.0253 -80.5671 140° Southeast  Level FlightAware Approximate
00:13 13.9219 -80.4794 141° Southeast  Level FlightAware Approximate
00:14 13.8185 -80.3917 141° Southeast  Level FlightAware Approximate
00:15 13.7150 -80.3041 141° Southeast  Level FlightAware Approximate
00:16 13.6116 -80.2165 141° Southeast  Level FlightAware Approximate
00:17 13.5081 -80.1291 141° Southeast  Level FlightAware Approximate
00:18 13.4045 -80.0417 141° Southeast  Level FlightAware Approximate
00:19 13.3010 -79.9544 141° Southeast  Level FlightAware Approximate
00:20 13.1974 -79.8672 141° Southeast  Level FlightAware Approximate
00:21 13.0938 -79.7800 141° Southeast  Level FlightAware Approximate
00:22 12.9901 -79.6929 141° Southeast  Level FlightAware Approximate
00:23 12.8864 -79.6059 141° Southeast  Level FlightAware Approximate
00:24 12.7827 -79.5190 141° Southeast  Level FlightAware Approximate
00:25 12.6790 -79.4321 141° Southeast  Level FlightAware Approximate
00:26 12.5752 -79.3453 141° Southeast  Level FlightAware Approximate
00:27 12.4714 -79.2586 141° Southeast  Level FlightAware Approximate
00:28 12.3676 -79.1720 141° Southeast  Level FlightAware Approximate
00:28 11.4750 -77.8160 141° Southeast 469 540 37,000  Level FlightAware
00:29 12.2638 -79.0854 141° Southeast  Level FlightAware Approximate
00:29 11.3960 -77.7550 143° Southeast 469 540 37,000  Level FlightAware
00:30 11.3400 -77.7110 142° Southeast 469 540 37,000  Level FlightAware
00:31 11.2450 -77.6370 143° Southeast 469 540 37,000  Level FlightAware
00:31 11.1860 -77.5900 142° Southeast 469 540 37,000  Level FlightAware
00:32 11.0950 -77.5220 144° Southeast 471 542 37,000  Level FlightAware
00:33 11.0270 -77.4670 142° Southeast 471 542 37,000  Level FlightAware
00:35 10.8454 -77.3055 139° Southeast  Level Estimated
00:35 10.7970 -77.2660 139° Southeast 485 558 37,000  Level FlightAware
00:36 10.7310 -77.2030 137° Southeast 486 559 37,000  Level FlightAware
00:36 10.6750 -77.1500 137° Southeast 486 559 37,000  Level FlightAware
00:37 10.6000 -77.0820 138° Southeast 482 555 37,000  Level FlightAware
00:38 10.5270 -77.0140 138° Southeast 483 556 37,000  Level FlightAware
00:38 10.4490 -76.9420 138° Southeast 483 556 37,000  Level FlightAware
00:39 10.3630 -76.8620 138° Southeast 486 559 37,000  Level FlightAware
00:40 10.2860 -76.7900 137° Southeast 485 558 37,000  Level FlightAware
00:41 10.2140 -76.7230 138° Southeast 484 557 37,000  Level FlightAware
00:41 10.1550 -76.6690 138° Southeast 483 556 37,000  Level FlightAware
00:42 10.0800 -76.5990 137° Southeast 481 554 37,000  Level FlightAware
00:43 9.9800 -76.5060 138° Southeast 480 552 37,000  Level FlightAware
00:44 9.9170 -76.4480 138° Southeast 479 551 37,000  Level FlightAware
00:44 9.8450 -76.3810 137° Southeast 478 550 37,000  Level FlightAware
00:45 9.7770 -76.3180 138° Southeast 475 547 37,000  Level FlightAware
00:46 9.7190 -76.2650 138° Southeast 469 540 37,000  Level FlightAware
00:46 9.6590 -76.2100 138° Southeast 475 547 37,000  Level FlightAware
00:47 9.5960 -76.1500 137° Southeast 475 547 37,000  Level FlightAware
00:48 9.5420 -76.0990 137° Southeast 475 547 37,000  Level FlightAware
00:49 9.4730 -76.0340 137° Southeast 475 547 37,000  Level FlightAware
00:49 9.4190 -75.9830 137° Southeast 475 547 37,000  Level FlightAware
00:50 9.3640 -75.9310 137° Southeast 475 547 37,000  Level FlightAware
00:51 9.3090 -75.8790 137° Southeast 475 547 37,000  Level FlightAware
00:51 9.2410 -75.8150 137° Southeast 475 547 37,000  Level FlightAware
00:52 9.1870 -75.7630 136° Southeast 475 547 37,000  Level FlightAware
00:53 9.1320 -75.7120 138° Southeast 475 547 37,000  Level FlightAware
00:53 9.0770 -75.6600 137° Southeast 475 547 37,000  Level FlightAware
00:54 9.0230 -75.6080 136° Southeast 475 547 37,000  Level FlightAware
00:55 8.9540 -75.5440 138° Southeast 475 547 37,000  Level FlightAware
00:56 8.9000 -75.4920 136° Southeast 475 547 37,000  Level FlightAware
00:56 8.8450 -75.4410 138° Southeast 475 547 37,000  Level FlightAware
00:59 8.6207 -75.2458 139° Southeast  Level Estimated
01:00 8.5195 -75.1578 139° Southeast  Level Estimated
01:01 8.4183 -75.0699 139° Southeast  Level Estimated
01:02 8.3170 -74.9820 139° Southeast  Level Estimated
01:03 8.2158 -74.8942 139° Southeast  Level Estimated
01:04 8.1145 -74.8064 139° Southeast  Level Estimated
01:05 8.0132 -74.7186 139° Southeast  Level Estimated
01:06 7.9118 -74.6309 139° Southeast  Level Estimated
01:07 7.8105 -74.5432 139° Southeast  Level Estimated
01:08 7.7091 -74.4556 139° Southeast  Level Estimated
01:09 7.6078 -74.3680 139° Southeast  Level Estimated
01:10 7.5064 -74.2805 139° Southeast  Level Estimated
01:11 7.4050 -74.1930 139° Southeast  Level Estimated
01:12 7.3035 -74.1055 139° Southeast  Level Estimated
01:13 7.2021 -74.0181 139° Southeast  Level Estimated
01:14 7.1006 -73.9307 139° Southeast  Level Estimated
01:15 6.9991 -73.8434 139° Southeast  Level Estimated
01:16 6.8976 -73.7561 140° Southeast  Level Estimated
01:17 6.7961 -73.6688 140° Southeast  Level Estimated
01:18 6.6946 -73.5816 140° Southeast  Level Estimated
01:19 6.5931 -73.4944 140° Southeast  Level Estimated
01:20 6.4915 -73.4072 140° Southeast  Level Estimated
01:21 6.3899 -73.3201 140° Southeast  Level Estimated
01:22 6.2883 -73.2330 140° Southeast  Level Estimated
01:23 6.1867 -73.1460 140° Southeast  Level Estimated
01:24 6.0851 -73.0590 140° Southeast  Level Estimated
01:25 5.9835 -72.9720 140° Southeast  Level Estimated
01:26 5.8818 -72.8850 140° Southeast  Level Estimated
01:27 5.7802 -72.7981 140° Southeast  Level Estimated
01:28 5.6785 -72.7112 140° Southeast  Level Estimated
01:29 5.5768 -72.6243 140° Southeast  Level Estimated
01:30 5.4751 -72.5375 140° Southeast  Level Estimated
01:31 5.3734 -72.4507 140° Southeast  Level Estimated
01:32 5.2717 -72.3639 140° Southeast  Level Estimated
01:33 5.1700 -72.2772 140° Southeast  Level Estimated
01:34 5.0682 -72.1905 140° Southeast  Level Estimated
01:35 4.9665 -72.1038 140° Southeast  Level Estimated
01:36 4.8647 -72.0171 140° Southeast  Level Estimated
01:37 4.7629 -71.9305 140° Southeast  Level Estimated
01:38 4.6611 -71.8439 140° Southeast  Level Estimated
01:39 4.5593 -71.7573 140° Southeast  Level Estimated
01:40 4.4575 -71.6707 140° Southeast  Level Estimated
01:41 4.3557 -71.5842 140° Southeast  Level Estimated
01:42 4.2539 -71.4977 140° Southeast  Level Estimated
01:43 4.1524 -71.4115 140° Southeast  Level Estimated
01:44 4.0509 -71.3253 140° Southeast  Level Estimated
01:45 3.9494 -71.2392 140° Southeast  Level Estimated
01:46 3.8479 -71.1531 140° Southeast  Level Estimated
01:47 3.7464 -71.0670 140° Southeast  Level Estimated
01:48 3.6449 -70.9809 140° Southeast  Level Estimated
01:49 3.5434 -70.8948 140° Southeast  Level Estimated
01:50 3.4418 -70.8088 140° Southeast  Level Estimated
01:51 3.3403 -70.7228 140° Southeast  Level Estimated
01:52 3.2387 -70.6368 140° Southeast  Level Estimated
01:53 3.1372 -70.5508 140° Southeast  Level Estimated
01:54 3.0356 -70.4648 140° Southeast  Level Estimated
01:55 2.9340 -70.3789 140° Southeast  Level Estimated
01:56 2.8324 -70.2929 140° Southeast  Level Estimated
01:57 2.7309 -70.2070 140° Southeast  Level Estimated
01:58 2.6293 -70.1211 140° Southeast  Level Estimated
01:59 2.5277 -70.0352 140° Southeast  Level Estimated
02:00 2.4261 -69.9493 140° Southeast  Level Estimated
02:01 2.3245 -69.8634 140° Southeast  Level Estimated
02:02 2.2229 -69.7776 140° Southeast  Level Estimated
02:03 2.1212 -69.6917 140° Southeast  Level Estimated
02:04 2.0196 -69.6059 140° Southeast  Level Estimated
02:05 1.9180 -69.5201 140° Southeast  Level Estimated
02:06 1.8163 -69.4343 140° Southeast  Level Estimated
02:07 1.7147 -69.3485 140° Southeast  Level Estimated
02:08 1.6131 -69.2627 140° Southeast  Level Estimated
02:09 1.5116 -69.1771 140° Southeast  Level Estimated
02:10 1.4101 -69.0914 140° Southeast  Level Estimated
02:11 1.3087 -69.0058 140° Southeast  Level Estimated
02:12 1.2072 -68.9202 140° Southeast  Level Estimated
02:13 1.1057 -68.8346 140° Southeast  Level Estimated
02:14 1.0042 -68.7490 140° Southeast  Level Estimated
02:15 0.9028 -68.6634 140° Southeast  Level Estimated
02:16 0.8013 -68.5778 140° Southeast  Level Estimated
02:17 0.6998 -68.4922 140° Southeast  Level Estimated
02:18 0.5983 -68.4067 140° Southeast  Level Estimated
02:19 0.4968 -68.3211 140° Southeast  Level Estimated
02:20 0.3953 -68.2355 140° Southeast  Level Estimated
02:21 0.2938 -68.1499 140° Southeast  Level Estimated
02:22 0.1924 -68.0644 140° Southeast  Level Estimated
02:23 0.0909 -67.9788 140° Southeast  Level Estimated
02:24 -0.0106 -67.8932 140° Southeast  Level Estimated
02:25 -0.1121 -67.8077 140° Southeast  Level Estimated
02:26 -0.2136 -67.7221 140° Southeast  Level Estimated
02:27 -0.3151 -67.6365 140° Southeast  Level Estimated
02:28 -0.4166 -67.5510 140° Southeast  Level Estimated
02:29 -0.5181 -67.4654 140° Southeast  Level Estimated
02:30 -0.6196 -67.3798 140° Southeast  Level Estimated
02:31 -0.7211 -67.2942 140° Southeast  Level Estimated
02:32 -0.8225 -67.2086 140° Southeast  Level Estimated
02:33 -0.9240 -67.1231 140° Southeast  Level Estimated
02:34 -1.0255 -67.0375 140° Southeast  Level Estimated
02:35 -1.1270 -66.9519 140° Southeast  Level Estimated
02:36 -1.2284 -66.8663 140° Southeast  Level Estimated
02:37 -1.3299 -66.7807 140° Southeast  Level Estimated
02:38 -1.4314 -66.6950 140° Southeast  Level Estimated
02:39 -1.5329 -66.6094 140° Southeast  Level Estimated
02:40 -1.6343 -66.5238 140° Southeast  Level Estimated
02:41 -1.7358 -66.4381 140° Southeast  Level Estimated
02:42 -1.8372 -66.3525 140° Southeast  Level Estimated
02:43 -1.9387 -66.2668 140° Southeast  Level Estimated
02:44 -2.0401 -66.1812 140° Southeast  Level Estimated
02:45 -2.1416 -66.0955 140° Southeast  Level Estimated
02:46 -2.2430 -66.0098 140° Southeast  Level Estimated
02:47 -2.3444 -65.9241 140° Southeast  Level Estimated
02:48 -2.4459 -65.8384 140° Southeast  Level Estimated
02:49 -2.5473 -65.7526 140° Southeast  Level Estimated
02:50 -2.6487 -65.6669 140° Southeast  Level Estimated
02:51 -2.7501 -65.5811 140° Southeast  Level Estimated
02:52 -2.8515 -65.4954 140° Southeast  Level Estimated
02:53 -2.9529 -65.4096 140° Southeast  Level Estimated
02:54 -3.0543 -65.3238 140° Southeast  Level Estimated
02:55 -3.1557 -65.2380 140° Southeast  Level Estimated
02:56 -3.2571 -65.1521 140° Southeast  Level Estimated
02:57 -3.3584 -65.0663 140° Southeast  Level Estimated
02:58 -3.4598 -64.9804 140° Southeast  Level Estimated
02:59 -3.5611 -64.8945 140° Southeast  Level Estimated
03:00 -3.6625 -64.8086 140° Southeast  Level Estimated
03:01 -3.7638 -64.7227 140° Southeast  Level Estimated
03:02 -3.8652 -64.6367 140° Southeast  Level Estimated
03:03 -3.9665 -64.5508 140° Southeast  Level Estimated
03:04 -4.0678 -64.4648 140° Southeast  Level Estimated
03:05 -4.1691 -64.3788 140° Southeast  Level Estimated
03:06 -4.2704 -64.2927 140° Southeast  Level Estimated
03:07 -4.3717 -64.2067 140° Southeast  Level Estimated
03:08 -4.4729 -64.1206 140° Southeast  Level Estimated
03:09 -4.5742 -64.0345 140° Southeast  Level Estimated
03:10 -4.6754 -63.9484 140° Southeast  Level Estimated
03:11 -4.7767 -63.8622 140° Southeast  Level Estimated
03:12 -4.8779 -63.7760 140° Southeast  Level Estimated
03:13 -4.9791 -63.6898 140° Southeast  Level Estimated
03:14 -5.0803 -63.6036 140° Southeast  Level Estimated
03:15 -5.1815 -63.5173 140° Southeast  Level Estimated
03:16 -5.2827 -63.4311 140° Southeast  Level Estimated
03:17 -5.3839 -63.3447 140° Southeast  Level Estimated
03:18 -5.4851 -63.2584 140° Southeast  Level Estimated
03:19 -5.5862 -63.1720 140° Southeast  Level Estimated
03:20 -5.6874 -63.0856 140° Southeast  Level Estimated
03:21 -5.7885 -62.9992 140° Southeast  Level Estimated
03:22 -5.8896 -62.9128 140° Southeast  Level Estimated
03:23 -5.9907 -62.8263 140° Southeast  Level Estimated
03:24 -6.0918 -62.7397 140° Southeast  Level Estimated
03:25 -6.1929 -62.6532 140° Southeast  Level Estimated
03:26 -6.2939 -62.5666 140° Southeast  Level Estimated
03:27 -6.3949 -62.4799 140° Southeast  Level Estimated
03:28 -6.4960 -62.3933 140° Southeast  Level Estimated
03:29 -6.5970 -62.3066 140° Southeast  Level Estimated
03:30 -6.6980 -62.2199 140° Southeast  Level Estimated
03:31 -6.7990 -62.1331 140° Southeast  Level Estimated
03:32 -6.8999 -62.0463 140° Southeast  Level Estimated
03:33 -7.0009 -61.9595 140° Southeast  Level Estimated
03:34 -7.1018 -61.8726 140° Southeast  Level Estimated
03:35 -7.2028 -61.7857 139° Southeast  Level Estimated
03:36 -7.3036 -61.6987 139° Southeast  Level Estimated
03:37 -7.4045 -61.6117 139° Southeast  Level Estimated
03:38 -7.5054 -61.5247 139° Southeast  Level Estimated
03:39 -7.6057 -61.4381 139° Southeast  Level Estimated
03:40 -7.7060 -61.3514 139° Southeast  Level Estimated
03:41 -7.8063 -61.2648 139° Southeast  Level Estimated
03:42 -7.9066 -61.1780 139° Southeast  Level Estimated
03:43 -8.0068 -61.0912 139° Southeast  Level Estimated
03:44 -8.1070 -61.0044 139° Southeast  Level Estimated
03:45 -8.2073 -60.9176 139° Southeast  Level Estimated
03:46 -8.3075 -60.8307 139° Southeast  Level Estimated
03:47 -8.4076 -60.7437 139° Southeast  Level Estimated
03:48 -8.5078 -60.6567 139° Southeast  Level Estimated
03:49 -8.6079 -60.5697 139° Southeast  Level Estimated
03:50 -8.7080 -60.4826 139° Southeast  Level Estimated
03:51 -8.8081 -60.3955 139° Southeast  Level Estimated
03:52 -8.9082 -60.3083 139° Southeast  Level Estimated
03:53 -9.0082 -60.2211 139° Southeast  Level Estimated
03:54 -9.1082 -60.1338 139° Southeast  Level Estimated
03:55 -9.2083 -60.0465 139° Southeast  Level Estimated
03:56 -9.3083 -59.9591 139° Southeast  Level Estimated
03:57 -9.4082 -59.8717 139° Southeast  Level Estimated
03:58 -9.5082 -59.7842 139° Southeast  Level Estimated
03:59 -9.6081 -59.6967 139° Southeast  Level Estimated
04:00 -9.7080 -59.6091 139° Southeast  Level Estimated
04:01 -9.8079 -59.5215 139° Southeast  Level Estimated
04:02 -9.9078 -59.4338 139° Southeast  Level Estimated
04:03 -10.0076 -59.3460 139° Southeast  Level Estimated
04:04 -10.1074 -59.2582 139° Southeast  Level Estimated
04:05 -10.2072 -59.1704 139° Southeast  Level Estimated
04:06 -10.3070 -59.0825 139° Southeast  Level Estimated
04:07 -10.4067 -58.9945 139° Southeast  Level Estimated
04:08 -10.5064 -58.9065 139° Southeast  Level Estimated
04:09 -10.6061 -58.8185 139° Southeast  Level Estimated
04:10 -10.7058 -58.7303 139° Southeast  Level Estimated
04:11 -10.8055 -58.6422 139° Southeast  Level Estimated
04:12 -10.9051 -58.5539 139° Southeast  Level Estimated
04:13 -11.0047 -58.4656 139° Southeast  Level Estimated
04:14 -11.1042 -58.3773 139° Southeast  Level Estimated
04:15 -11.2038 -58.2888 139° Southeast  Level Estimated
04:16 -11.3033 -58.2004 139° Southeast  Level Estimated
04:17 -11.4028 -58.1118 139° Southeast  Level Estimated
04:18 -11.5023 -58.0232 139° Southeast  Level Estimated
04:19 -11.6017 -57.9345 139° Southeast  Level Estimated
04:20 -11.7011 -57.8458 139° Southeast  Level Estimated
04:21 -11.8005 -57.7570 139° Southeast  Level Estimated
04:22 -11.8999 -57.6682 139° Southeast  Level Estimated
04:23 -11.9992 -57.5792 139° Southeast  Level Estimated
04:24 -12.0985 -57.4902 139° Southeast  Level Estimated
04:25 -12.1978 -57.4012 139° Southeast  Level Estimated
04:26 -12.2970 -57.3121 139° Southeast  Level Estimated
04:27 -12.3962 -57.2229 139° Southeast  Level Estimated
04:28 -12.4954 -57.1336 139° Southeast  Level Estimated
04:29 -12.5946 -57.0443 139° Southeast  Level Estimated
04:30 -12.6937 -56.9549 139° Southeast  Level Estimated
04:31 -12.7928 -56.8654 139° Southeast  Level Estimated
04:32 -12.8919 -56.7759 139° Southeast  Level Estimated
04:33 -12.9909 -56.6863 139° Southeast  Level Estimated
04:34 -13.0899 -56.5966 139° Southeast  Level Estimated
04:35 -13.1889 -56.5068 139° Southeast  Level Estimated
04:36 -13.2879 -56.4170 139° Southeast  Level Estimated
04:37 -13.3868 -56.3271 139° Southeast  Level Estimated
04:38 -13.4856 -56.2371 139° Southeast  Level Estimated
04:39 -13.5845 -56.1471 138° Southeast  Level Estimated
04:40 -13.6833 -56.0570 138° Southeast  Level Estimated
04:41 -13.7821 -55.9668 138° Southeast  Level Estimated
04:42 -13.8808 -55.8765 138° Southeast  Level Estimated
04:43 -13.9796 -55.7862 138° Southeast  Level Estimated
04:44 -14.0782 -55.6957 138° Southeast  Level Estimated
04:45 -14.1769 -55.6052 138° Southeast  Level Estimated
04:46 -14.2755 -55.5146 138° Southeast  Level Estimated
04:47 -14.3741 -55.4240 138° Southeast  Level Estimated
04:48 -14.4726 -55.3332 138° Southeast  Level Estimated
04:49 -14.5711 -55.2424 138° Southeast  Level Estimated
04:50 -14.6696 -55.1515 138° Southeast  Level Estimated
04:51 -14.7681 -55.0605 138° Southeast  Level Estimated
04:52 -14.8665 -54.9695 138° Southeast  Level Estimated
04:53 -14.9649 -54.8783 138° Southeast  Level Estimated
04:54 -15.0632 -54.7871 138° Southeast  Level Estimated
04:55 -15.1615 -54.6958 138° Southeast  Level Estimated
04:56 -15.2598 -54.6044 138° Southeast  Level Estimated
04:57 -15.3580 -54.5129 138° Southeast  Level Estimated
04:58 -15.4562 -54.4213 138° Southeast  Level Estimated
04:59 -15.5543 -54.3296 138° Southeast  Level Estimated
05:00 -15.6524 -54.2379 138° Southeast  Level Estimated
05:01 -15.7505 -54.1460 138° Southeast  Level Estimated
05:02 -15.8485 -54.0541 138° Southeast  Level Estimated
05:03 -15.9465 -53.9621 138° Southeast  Level Estimated
05:04 -16.0445 -53.8700 138° Southeast  Level Estimated
05:05 -16.1424 -53.7778 138° Southeast  Level Estimated
05:06 -16.2403 -53.6855 138° Southeast  Level Estimated
05:07 -16.3381 -53.5931 138° Southeast  Level Estimated
05:08 -16.4359 -53.5006 138° Southeast  Level Estimated
05:09 -16.5337 -53.4081 138° Southeast  Level Estimated
05:10 -16.6314 -53.3154 138° Southeast  Level Estimated
05:11 -16.7291 -53.2227 138° Southeast  Level Estimated
05:12 -16.8267 -53.1298 138° Southeast  Level Estimated
05:13 -16.9243 -53.0369 138° Southeast  Level Estimated
05:14 -17.0219 -52.9438 138° Southeast  Level Estimated
05:15 -17.1194 -52.8507 138° Southeast  Level Estimated
05:16 -17.2170 -52.7573 138° Southeast  Level Estimated
05:17 -17.3146 -52.6638 138° Southeast  Level Estimated
05:18 -17.4122 -52.5702 138° Southeast  Level Estimated
05:19 -17.5097 -52.4765 138° Southeast  Level Estimated
05:20 -17.6071 -52.3827 137° Southeast  Level Estimated
05:21 -17.7045 -52.2888 137° Southeast  Level Estimated
05:22 -17.8019 -52.1948 137° Southeast  Level Estimated
05:23 -17.8993 -52.1007 137° Southeast  Level Estimated
05:24 -17.9965 -52.0065 137° Southeast  Level Estimated
05:25 -18.0938 -51.9122 137° Southeast  Level Estimated
05:26 -18.1910 -51.8177 137° Southeast  Level Estimated
05:27 -18.2881 -51.7232 137° Southeast  Level Estimated
05:28 -18.3852 -51.6286 137° Southeast  Level Estimated
05:29 -18.4823 -51.5339 137° Southeast  Level Estimated
05:30 -18.5793 -51.4390 137° Southeast  Level Estimated
05:31 -18.6762 -51.3441 137° Southeast  Level Estimated
05:32 -18.7731 -51.2490 137° Southeast  Level Estimated
05:33 -18.8700 -51.1538 137° Southeast  Level Estimated
05:34 -18.9668 -51.0586 137° Southeast  Level Estimated
05:35 -19.0636 -50.9632 137° Southeast  Level Estimated
05:36 -19.1603 -50.8677 137° Southeast  Level Estimated
05:37 -19.2570 -50.7720 137° Southeast  Level Estimated
05:38 -19.3536 -50.6763 137° Southeast  Level Estimated
05:39 -19.4502 -50.5805 137° Southeast  Level Estimated
05:39 -19.2920 -50.3500 137° Southeast 531 611 39,000  Level FlightAware
05:40 -19.5467 -50.4845 137° Southeast  Level Estimated
05:40 -19.3690 -50.2670 135° Southeast 530 610 39,000  Level FlightAware
05:40 -19.4400 -50.1890 134° Southeast 529 609 39,000  Level FlightAware
05:41 -19.5200 -50.1010 134° Southeast 527 606 39,000  Level FlightAware
05:42 -19.5940 -50.0190 134° Southeast 526 605 39,000  Level FlightAware
05:43 -19.6620 -49.9450 134° Southeast 526 605 39,000  Level FlightAware
05:43 -19.7400 -49.8600 134° Southeast 524 603 39,000  Level FlightAware
05:44 -19.8020 -49.7910 134° Southeast 521 600 39,000  Level FlightAware
05:45 -19.8730 -49.7140 134° Southeast 521 600 39,000  Level FlightAware
05:45 -19.9330 -49.6480 134° Southeast 521 600 39,000  Level FlightAware
05:46 -20.0150 -49.5590 134° Southeast 521 600 39,000  Level FlightAware
05:47 -20.0910 -49.4750 134° Southeast 521 600 39,000  Level FlightAware
05:48 -20.1590 -49.4000 134° Southeast 521 600 39,000  Level FlightAware
05:48 -20.2240 -49.3290 134° Southeast 521 600 39,000  Level FlightAware
05:49 -20.2950 -49.2500 134° Southeast 522 601 39,000  Level FlightAware
05:50 -20.3870 -49.1490 134° Southeast 522 601 39,000  Level FlightAware
05:51 -20.4560 -49.0720 134° Southeast 522 601 39,000  Level FlightAware
05:51 -20.5360 -48.9830 134° Southeast 522 601 39,000  Level FlightAware
05:52 -20.6030 -48.9090 134° Southeast 522 601 39,000  Level FlightAware
05:53 -20.6700 -48.8350 134° Southeast 522 601 39,000  Level FlightAware
05:53 -20.7370 -48.7600 134° Southeast 522 601 39,000  Level FlightAware
05:54 -20.8050 -48.6830 133° Southeast 522 601 39,000  Level FlightAware
05:55 -20.8840 -48.5950 134° Southeast 520 598 39,000  Level FlightAware
05:55 -20.9510 -48.5190 133° Southeast 520 598 39,000  Level FlightAware
05:56 -21.0040 -48.4600 134° Southeast 519 597 39,000  Level FlightAware
05:57 -21.0700 -48.3860 134° Southeast 519 597 39,000  Level FlightAware
05:58 -21.1560 -48.2880 133° Southeast 520 598 39,000  Level FlightAware
05:58 -21.2310 -48.2040 134° Southeast 520 598 39,000  Level FlightAware
05:59 -21.2950 -48.1300 133° Southeast 520 598 39,000 -240 Level FlightAware
06:00 -21.3510 -48.0670 134° Southeast 513 590 38,700 -1,140 Descending FlightAware
06:00 -21.4380 -47.9690 134° Southeast 500 575 37,400 -1,620 Descending FlightAware
06:01 -21.5090 -47.8890 134° Southeast 493 567 36,300 -1,500 Descending FlightAware
06:02 -21.5690 -47.8200 133° Southeast 487 560 35,300 -1,620 Descending FlightAware
06:02 -21.6320 -47.7490 134° Southeast 480 552 34,200 -1,680 Descending FlightAware
06:03 -21.7000 -47.6710 133° Southeast 470 541 33,000 -1,740 Descending FlightAware
06:04 -21.7600 -47.6020 133° Southeast 463 533 31,800 -1,500 Descending FlightAware
06:05 -21.8170 -47.5370 133° Southeast 447 514 31,000 -1,380 Descending FlightAware
06:05 -21.8770 -47.4660 132° Southeast 435 501 29,900 -2,160 Descending FlightAware
06:06 -21.9320 -47.3970 131° Southeast 447 514 28,000 -2,580 Descending FlightAware
06:07 -21.9830 -47.3310 130° Southeast 446 513 26,500 -1,440 Descending FlightAware
06:07 -22.0400 -47.2600 131° Southeast 438 504 26,000 -300 Descending FlightAware
06:08 -22.1370 -47.2070 153° Southeast 430 495 26,000  Level FlightAware
06:10 -22.2850 -47.1710 167° South 429 494 26,000 -1,200 Level FlightAware
06:11 -22.4330 -47.1340 167° South 431 496 23,100 -2,280 Descending FlightAware
06:12 -22.5780 -47.0950 166° South 419 482 20,400 -2,100 Descending FlightAware
06:14 -22.8300 -46.9910 146° Southeast 382 440 15,500 -1,560 Descending FlightAware
06:15 -22.8488 -46.8977 146° Southeast  Level Estimated
06:16 -22.9390 -46.9460 159° South 329 379 14,900  Level FlightAware
06:17 -23.0380 -46.9040 159° South 291 335 11,800 -2,280 Descending FlightAware
06:18 -23.1260 -46.8670 159° South 244 281 9,300 -1,860 Descending FlightAware
06:19 -23.1530 -46.8560 159° South 245 282 8,700 -1,200 Descending FlightAware
06:19 -23.1860 -46.8420 159° South 242 278 8,200 -780 Descending FlightAware
06:19 -23.2130 -46.8300 158° South 247 284 8,000 -240 Descending FlightAware
06:20 -23.2440 -46.8170 159° South 225 259 8,000 -300 Level FlightAware
06:20 -23.2580 -46.8110 159° South 210 242 7,800 -840 Descending FlightAware
06:21 -23.2850 -46.8000 159° South 207 238 7,400 -900 Descending FlightAware
06:21 -23.2940 -46.7960 158° South 205 236 7,200 -1,380 Descending FlightAware
06:21 -23.3210 -46.7840 158° South 205 236 6,500 -1,440 Descending FlightAware
06:22 -23.3440 -46.7750 160° South 206 237 5,900 -1,320 Descending FlightAware
06:22 -23.3700 -46.7630 157° South 202 232 5,300 -720 Descending FlightAware
06:23 -23.3910 -46.7460 143° Southeast 170 196 5,200 -120 Descending FlightAware
06:23 -23.4050 -46.7320 137° Southeast 170 196 5,200  Level FlightAware
06:24 -23.4240 -46.7150 141° Southeast 171 197 5,200  Level FlightAware
06:24 -23.4420 -46.6970 137° Southeast 170 196 5,200  Level FlightAware
06:24 -23.4490 -46.6890 134° Southeast 162 186 5,200  Level FlightAware
06:25 -23.4570 -46.6710 116° Southeast 147 169 5,200 -360 Level FlightAware
06:25 -23.4660 -46.6510 116° Southeast 138 159 4,900 -900 Descending FlightAware
06:26 -23.4730 -46.6340 114° Southeast 140 161 4,400 -780 Descending FlightAware
06:26 -23.4750 -46.6250 104° East 145 167 4,400 -180 Level FlightAware
06:27 -23.4700 -46.6030 76° East 142 163 4,300 -480 Descending FlightAware
06:27 -23.4660 -46.5860 76° East 144 166 4,000 -780 Descending FlightAware
06:27 -23.4630 -46.5750 73° East 140 161 3,800 -840 Descending FlightAware
06:28 -23.4570 -46.5550 72° East 136 157 3,400 -840 Descending FlightAware
06:28 -23.4550 -46.5450 78° East 137 158 3,200 -780 Descending FlightAware
06:28 -23.4500 -46.5290 71° East 136 157 2,900 -660 Descending FlightAware
06:29 -23.4450 -46.5080 75° East 140 161 2,600 -720 Descending FlightAware
06:29 -23.4420 -46.5000 68° East 141 162 2,400 -900 Descending FlightAware
06:29 -23.4380 -46.4840 75° East 138 159 2,100 -900 Descending FlightAware